User: anonymous   Login
Location: Oberwangen
(47.4286°N, 8.9679°E)
Time: 05:12:27
(UTC+00:00)
Language:

Cosmos 1464 Rocket - Orbit

View from above orbital plane
View from above orbital plane
View from above satellite
View from above satellite

Ground track
Ground track

The orbit data is extracted from the following two-line orbital elements,

1 14085U 83048B   21260.60380330  .00000050  00000-0  35411-4 0  9998
2 14085  82.9477  16.7162 0034804  82.0531 278.4573 13.76324560924332
Epoch (UTC): 17 September 2021 14:29:28
Eccentricity: 0.0034804
inclination: 82.9477°
perigee height: 951 km
apogee height: 1002 km
right ascension of ascending node: 16.7162°
argument of perigee: 82.0531°
revolutions per day: 13.76324560
mean anomaly at epoch: 278.4573°
orbit number at epoch: 92433

The dashed part of the orbit path shows where the satellite is in the earth's shadow,  

DLR